Hourly Weather Kleinarl

Today, 27 July, Tuesday

Time Temperature Precipitation Wind Pressure Humidity
00:00 +10°C° 0.2 mm 1 mps 608 mmHg 97%
01:00 +10°C° 0.2 mm 1 mps 608 mmHg 97%
02:00 +9°C° 0 mm 1 mps 608 mmHg 97%
03:00 +9°C° 0 mm 1 mps 608 mmHg 97%
04:00 +9°C° 0 mm 1 mps 607 mmHg 97%
05:00 +10°C° 0.1 mm 1 mps 608 mmHg 94%
06:00 +11°C° 0.1 mm 1 mps 608 mmHg 92%
07:00 +11°C° 0.1 mm 0 mps 609 mmHg 89%
08:00 +14°C° 0.2 mm 1 mps 609 mmHg 81%
09:00 +15°C° 0.2 mm 1 mps 610 mmHg 73%
10:00 +18°C° 0.2 mm 1 mps 610 mmHg 65%
11:00 +19°C° 0.3 mm 1 mps 610 mmHg 61%
12:00 +18°C° 0.3 mm 2 mps 610 mmHg 58%
13:00 +19°C° 0.3 mm 2 mps 610 mmHg 55%
14:00 +19°C° 0.2 mm 2 mps 610 mmHg 56%
15:00 +19°C° 0.2 mm 2 mps 610 mmHg 58%
16:00 +19°C° 0.2 mm 2 mps 609 mmHg 59%
17:00 +17°C° 0.6 mm 2 mps 609 mmHg 69%
18:00 +15°C° 0.6 mm 2 mps 608 mmHg 79%
19:00 +13°C° 0.6 mm 2 mps 608 mmHg 89%
20:00 +12°C° 0.4 mm 2 mps 607 mmHg 91%
21:00 +10°C° 0.4 mm 2 mps 607 mmHg 93%
22:00 +9°C° 0.4 mm 2 mps 607 mmHg 95%
23:00 +9°C° 0.1 mm 2 mps 607 mmHg 95%

Tomorrow, 28 July, Wednesday

Time Temperature Precipitation Wind Pressure Humidity
00:00 +10°C° 0.1 mm 1 mps 607 mmHg 95%
01:00 +10°C° 0.1 mm 1 mps 607 mmHg 95%
02:00 +10°C° 0.1 mm 1 mps 607 mmHg 95%
03:00 +10°C° 0.1 mm 1 mps 607 mmHg 96%
04:00 +9°C° 0.1 mm 1 mps 607 mmHg 96%
05:00 +10°C° 0.1 mm 1 mps 607 mmHg 95%
06:00 +10°C° 0.1 mm 0 mps 608 mmHg 94%
07:00 +11°C° 0.1 mm 0 mps 608 mmHg 93%
08:00 +13°C° 0.1 mm 1 mps 608 mmHg 88%
09:00 +14°C° 0.1 mm 1 mps 609 mmHg 82%
10:00 +15°C° 0.1 mm 1 mps 609 mmHg 77%
11:00 +15°C° 0.4 mm 1 mps 609 mmHg 75%
12:00 +16°C° 0.4 mm 2 mps 609 mmHg 74%
13:00 +16°C° 0.4 mm 2 mps 609 mmHg 72%
14:00 +15°C° 0.8 mm 2 mps 609 mmHg 79%
15:00 +14°C° 0.8 mm 2 mps 608 mmHg 86%
16:00 +12°C° 0.8 mm 2 mps 608 mmHg 93%
17:00 +12°C° 2 mm 2 mps 608 mmHg 95%
18:00 +10°C° 2 mm 2 mps 608 mmHg 96%
19:00 +9°C° 2 mm 2 mps 608 mmHg 98%
20:00 +8°C° 1.6 mm 2 mps 608 mmHg 97%
21:00 +9°C° 1.6 mm 1 mps 608 mmHg 96%
22:00 +8°C° 1.6 mm 1 mps 608 mmHg 96%
23:00 +8°C° 0 mm 1 mps 608 mmHg 94%

Day after tomorrow, 29 July, Thursday

Time Temperature Precipitation Wind Pressure Humidity
00:00 +7°C° 0 mm 1 mps 607 mmHg 91%
01:00 +7°C° 0 mm 1 mps 607 mmHg 89%
02:00 +7°C° 0 mm 1 mps 607 mmHg 89%
03:00 +7°C° 0 mm 1 mps 607 mmHg 88%
04:00 +7°C° 0 mm 1 mps 607 mmHg 88%
05:00 +9°C° 0 mm 1 mps 607 mmHg 86%
06:00 +10°C° 0 mm 1 mps 608 mmHg 84%
07:00 +12°C° 0 mm 1 mps 608 mmHg 82%
08:00 +14°C° 0 mm 1 mps 609 mmHg 72%
09:00 +16°C° 0 mm 1 mps 610 mmHg 63%
10:00 +19°C° 0 mm 1 mps 610 mmHg 53%
11:00 +20°C° 0 mm 1 mps 610 mmHg 51%
12:00 +21°C° 0 mm 1 mps 610 mmHg 49%
13:00 +20°C° 0 mm 2 mps 610 mmHg 48%
14:00 +21°C° 0.1 mm 1 mps 610 mmHg 51%
15:00 +20°C° 0.1 mm 1 mps 610 mmHg 55%
16:00 +20°C° 0.1 mm 1 mps 610 mmHg 59%
17:00 +19°C° 0.2 mm 1 mps 609 mmHg 67%
18:00 +16°C° 0.2 mm 1 mps 608 mmHg 75%
19:00 +15°C° 0.2 mm 1 mps 608 mmHg 83%
20:00 +14°C° 0.1 mm 1 mps 607 mmHg 86%
21:00 +12°C° 0.1 mm 1 mps 607 mmHg 88%
22:00 +11°C° 0.1 mm 1 mps 607 mmHg 91%
23:00 +11°C° 0.6 mm 1 mps 607 mmHg 93%

30 July, Friday

Time Temperature Precipitation Wind Pressure Humidity
00:00 +11°C° 0.6 mm 1 mps 607 mmHg 96%
01:00 +10°C° 0.6 mm 1 mps 607 mmHg 98%
02:00 +10°C° 0 mm 1 mps 607 mmHg 98%
03:00 +10°C° 0 mm 1 mps 607 mmHg 97%
04:00 +9°C° 0 mm 0 mps 606 mmHg 97%
05:00 +10°C° 0 mm 0 mps 606 mmHg 95%
06:00 +11°C° 0 mm 0 mps 607 mmHg 93%
07:00 +11°C° 0 mm 0 mps 607 mmHg 92%
08:00 +12°C° 0.5 mm 0 mps 607 mmHg 90%
09:00 +12°C° 0.5 mm 0 mps 607 mmHg 88%
10:00 +13°C° 0.5 mm 0 mps 607 mmHg 86%
11:00 +14°C° 0.8 mm 1 mps 607 mmHg 87%
12:00 +13°C° 0.8 mm 1 mps 607 mmHg 87%
13:00 +13°C° 0.8 mm 1 mps 607 mmHg 88%
14:00 +15°C° 0.1 mm 1 mps 607 mmHg 77%
15:00 +16°C° 0.1 mm 1 mps 608 mmHg 67%
16:00 +19°C° 0.1 mm 1 mps 608 mmHg 56%
17:00 +16°C° 0.3 mm 1 mps 607 mmHg 67%
18:00 +15°C° 0.3 mm 1 mps 607 mmHg 78%
19:00 +13°C° 0.3 mm 1 mps 606 mmHg 89%
20:00 +12°C° 0.9 mm 1 mps 606 mmHg 91%
21:00 +11°C° 0.9 mm 1 mps 606 mmHg 93%
22:00 +11°C° 0.9 mm 1 mps 606 mmHg 95%
23:00 +10°C° 0.3 mm 1 mps 606 mmHg 95%

31 July, Saturday

Time Temperature Precipitation Wind Pressure Humidity
00:00 +9°C° 0.3 mm 0 mps 606 mmHg 95%
01:00 +9°C° 0.3 mm 0 mps 606 mmHg 95%
02:00 +9°C° 0.3 mm 0 mps 605 mmHg 95%
03:00 +9°C° 0.3 mm 1 mps 605 mmHg 96%
04:00 +9°C° 0.3 mm 1 mps 605 mmHg 96%
05:00 +10°C° 0.3 mm 1 mps 605 mmHg 95%
06:00 +11°C° 0.3 mm 1 mps 605 mmHg 94%
07:00 +12°C° 0.3 mm 1 mps 606 mmHg 93%
08:00 +13°C° 0.8 mm 1 mps 606 mmHg 90%
09:00 +14°C° 0.8 mm 1 mps 606 mmHg 87%
10:00 +15°C° 0.8 mm 1 mps 606 mmHg 85%
11:00 +15°C° 1.5 mm 1 mps 606 mmHg 84%
12:00 +15°C° 1.5 mm 1 mps 606 mmHg 84%
13:00 +15°C° 1.5 mm 1 mps 606 mmHg 84%
14:00 +15°C° 1.2 mm 1 mps 606 mmHg 85%
15:00 +15°C° 1.2 mm 1 mps 606 mmHg 85%
16:00 +15°C° 1.2 mm 1 mps 606 mmHg 86%
17:00 +14°C° 0.5 mm 1 mps 605 mmHg 89%
18:00 +13°C° 0.5 mm 1 mps 605 mmHg 91%
19:00 +12°C° 0.5 mm 1 mps 604 mmHg 94%
20:00 +12°C° 0.1 mm 1 mps 604 mmHg 94%
21:00 +11°C° 0.1 mm 1 mps 604 mmHg 95%
22:00 +10°C° 0.1 mm 1 mps 603 mmHg 95%
23:00 +10°C° 0.2 mm 1 mps 603 mmHg 95%

1 August, Sunday

Time Temperature Precipitation Wind Pressure Humidity
00:00 +10°C° 0.2 mm 1 mps 603 mmHg 96%
01:00 +10°C° 0.2 mm 1 mps 602 mmHg 96%
02:00 +10°C° 0.2 mm 1 mps 602 mmHg 97%
03:00 +9°C° 0.2 mm 1 mps 602 mmHg 98%
04:00 +9°C° 0.2 mm 1 mps 602 mmHg 98%
05:00 +9°C° 0.3 mm 1 mps 602 mmHg 98%
06:00 +10°C° 0.3 mm 1 mps 602 mmHg 98%
07:00 +9°C° 0.3 mm 2 mps 602 mmHg 97%
08:00 +8°C° 1 mm 2 mps 602 mmHg 97%
09:00 +7°C° 1 mm 2 mps 602 mmHg 96%
10:00 +7°C° 1 mm 2 mps 602 mmHg 96%
11:00 +6°C° 2.6 mm 2 mps 602 mmHg 96%
12:00 +5°C° 2.6 mm 2 mps 602 mmHg 97%
13:00 +5°C° 2.6 mm 1 mps 602 mmHg 97%
14:00 +5°C° 3 mm 1 mps 602 mmHg 96%
15:00 +5°C° 3 mm 1 mps 602 mmHg 94%
16:00 +5°C° 3 mm 1 mps 602 mmHg 93%
17:00 +5°C° 0 mm 1 mps 603 mmHg 93%
18:00 +6°C° 0 mm 1 mps 603 mmHg 93%
19:00 +6°C° 0 mm 1 mps 603 mmHg 93%
20:00 +5°C° 0 mm 1 mps 603 mmHg 94%
21:00 +4°C° 0 mm 1 mps 603 mmHg 94%
22:00 +2°C° 0 mm 2 mps 604 mmHg 95%
23:00 +4°C° 0 mm 1 mps 604 mmHg 94%
Show more